Location: Unspecified
(0.0000°N, 0.0000°E)
Time: 19:35:39
(UTC+00:00)

THORAD DELTA 1 DEB - Pass Details

Date: 15 February 2026
Orbit: 1451 x 1738 km, 101.5° (Epoch: 9 March)

Event Time Altitude Azimuth Distance (km) Brightness Sun altitude
Rises 20:27:10 0° 165° (SSE) 4,737 ? -32.4°
Reaches altitude 10° 20:30:04 10° 165° (SSE) 3,718 ? -33.1°
Maximum altitude 20:38:45 90° 250° (WSW) 1,489 ? -35.2°
Drops below altitude 10° 20:47:04 10° 344° (NNW) 3,569 ? -37.2°
Sets 20:49:48 0° 345° (NNW) 4,538 ? -37.8°
